Topeka, KS

2:44 PM CST on November 13, 2019 (GMT -0600)
Billard Municipal

Weather History for KTOP - September, 2019

Change the Weather History Date:

Monday, September 9, 2019

  Actual Average Record
Temperature  
Mean Temperature 82 °F 71 °F  
Max Temperature 93 °F 83 °F 101 °F (1970)
Min Temperature 71 °F 59 °F 42 °F (1976)
Degree Days  
Heating Degree Days 0 1  
Month to date heating degree days 0 4  
Since 1 July heating degree days 0 6  
Cooling Degree Days 17 7  
Month to date cooling degree days 115 74  
Year to date cooling degree days 1361 1302  
Growing Degree Days 32 (Base 50)    
Moisture  
Dew Point 68 °F    
Average Humidity 63    
Maximum Humidity 90    
Minimum Humidity 36    
Precipitation  
Precipitation 0.00 in 0.13 in 1.43 in (1922)
Month to date precipitation 0.04 1.10  
Year to date precipitation 40.93 27.67  
Snow  
Snow 0.00 in 0.00 in 0.00 in ()
Month to date snowfall 0.0 0.0  
Year to date snowfall 18.5 11.3  
Since 1 July snowfall T 0.0  
Snow Depth 0.00 in    
Sea Level Pressure  
Sea Level Pressure 29.90 in    
Wind  
Wind Speed 10 mph (SSE)    
Max Wind Speed 25 mph    
Max Gust Speed 38 mph    
Visibility 10 miles    
Events      
T = Trace of Precipitation, MM = Missing Value Source: NWS Daily Summary

Daily Weather History Graph

Daily Weather History Graph

Search for Another Location

Airport or City:

Astronomy

Sep. 09, 2019 Rise Set
Actual Time 6:58 AM CDT 7:40 PM CDT
Civil Twilight 6:31 AM CDT 8:07 PM CDT
Nautical Twilight 5:59 AM CDT 8:39 PM CDT
Astronomical Twilight 5:26 AM CDT 9:12 PM CDT
Moon 5:34 PM CDT (9/9) 2:32 AM CDT (9/9)
Length of Visible Light 13h 36m
Length of Day
12h 42m
Waxing Gibbous, 83% of the Moon is Illuminated
Sep 9
Waxing Gibbous
Sep 13
Full
Sep 21
Last Quarter
Sep 28
New
Oct 5
First Quarter

Hourly Weather History & Observations

Time (CDT) Temp. Heat Index Dew Point Humidity Pressure Visibility Wind Dir Wind Speed Gust Speed Precip Events Conditions
12:53 AM 75.9 °F - 72.0 °F 87% 29.90 in 10.0 mi East 5.8 mph - N/A   Mostly Cloudy
1:53 AM 75.0 °F - 69.1 °F 82% 29.90 in 10.0 mi ESE 5.8 mph - N/A   Partly Cloudy
2:53 AM 75.9 °F - 69.1 °F 79% 29.91 in 10.0 mi SE 3.5 mph - N/A   Overcast
3:53 AM 75.9 °F - 69.1 °F 79% 29.92 in 10.0 mi Calm Calm - N/A   Mostly Cloudy
4:53 AM 73.0 °F - 69.1 °F 87% 29.92 in 10.0 mi Calm Calm - N/A   Scattered Clouds
5:53 AM 73.0 °F - 69.1 °F 87% 29.92 in 10.0 mi SSW 9.2 mph - N/A   Scattered Clouds
6:53 AM 71.1 °F - 68.0 °F 90% 29.92 in 10.0 mi East 4.6 mph - N/A   Scattered Clouds
7:53 AM 73.9 °F - 68.0 °F 82% 29.93 in 10.0 mi ESE 4.6 mph - N/A   Clear
8:53 AM 75.9 °F - 66.9 °F 74% 29.93 in 10.0 mi South 9.2 mph - N/A   Clear
9:53 AM 80.1 °F 82.3 °F 66.9 °F 64% 29.93 in 10.0 mi South 11.5 mph - N/A   Clear
10:53 AM 84.9 °F 88.2 °F 68.0 °F 57% 29.92 in 10.0 mi South 18.4 mph 24.2 mph N/A   Clear
11:53 AM 88.0 °F 91.4 °F 68.0 °F 51% 29.91 in 10.0 mi South 17.3 mph 26.5 mph N/A   Clear
12:53 PM 90.0 °F 92.4 °F 66.0 °F 45% 29.91 in 10.0 mi SSW 19.6 mph 28.8 mph N/A   Clear
1:53 PM 91.9 °F 94.5 °F 66.0 °F 42% 29.90 in 10.0 mi South 12.7 mph 27.6 mph N/A   Clear
2:53 PM 93.0 °F 94.2 °F 63.0 °F 37% 29.88 in 10.0 mi SSW 16.1 mph 29.9 mph N/A   Clear
3:53 PM 91.9 °F 92.9 °F 63.0 °F 38% 29.86 in 10.0 mi SSW 16.1 mph 24.2 mph N/A   Clear
4:53 PM 91.0 °F 93.0 °F 64.9 °F 42% 29.86 in 10.0 mi South 11.5 mph - N/A   Clear
5:53 PM 88.0 °F 90.7 °F 66.9 °F 49% 29.86 in 10.0 mi SSE 9.2 mph - N/A   Clear
6:53 PM 84.9 °F 88.2 °F 68.0 °F 57% 29.86 in 10.0 mi SE 9.2 mph - N/A   Clear
7:53 PM 84.0 °F 87.0 °F 68.0 °F 58% 29.87 in 10.0 mi SSE 11.5 mph - N/A   Clear
8:53 PM 82.9 °F 85.8 °F 68.0 °F 60% 29.88 in 10.0 mi South 10.4 mph - N/A   Clear
9:53 PM 80.1 °F 82.7 °F 68.0 °F 67% 29.91 in 10.0 mi SSE 8.1 mph - N/A   Clear
10:53 PM 78.1 °F - 68.0 °F 71% 29.91 in 10.0 mi SSE 6.9 mph - N/A   Clear
11:53 PM 79.0 °F - 68.0 °F 69% 29.91 in 10.0 mi South 10.4 mph - N/A   Clear